DW8435 Weather Reports


time (UTC)temp
F
wind
direction
speed
knots
gust
knots
rain 1hr
in
rain 24hr
in
rain mn
in
humidity
%
barometer
mb
20260507174529 88 153 6.1 10.4 0.00 0.00 0.00 73 1012.6
20260507173116 89 170 7.8 14.8 0.00 0.00 0.00 69 1012.8
20260507171530 91 174 7.0 12.2 0.00 0.00 0.00 66 1013.1
20260507170115 89 141 5.2 11.3 0.00 0.00 0.00 65 1013.1
20260507164550 90 130 7.8 13.0 0.00 0.00 0.00 65 1013.4
20260507163124 89 140 7.8 13.0 0.00 0.00 0.00 65 1013.5
20260507161539 89 115 7.0 10.4 0.00 0.00 0.00 65 1013.8
20260507160127 89 122 7.0 11.3 0.00 0.00 0.00 67 1013.8
20260507154541 89 128 5.2 10.4 0.00 0.00 0.00 67 1013.9
20260507153132 89 130 6.1 10.4 0.00 0.00 0.00 67 1013.9
20260507151513 89 117 3.5 12.2 0.00 0.00 0.00 67 1013.8
20260507144527 89 162 4.3 9.6 0.00 0.00 0.00 64 1014.0
20260507143120 88 125 6.1 10.4 0.00 0.00 0.00 64 1014.1
20260507141559 87 142 6.1 10.4 0.00 0.00 0.00 66 1014.2
20260507140007 87 137 7.8 11.3 0.00 0.00 0.00 66 1014.2
20260507134553 88 176 4.3 7.0 0.00 0.00 0.00 62 1014.2
20260507133013 87 199 3.5 6.1 0.00 0.00 0.00 62 1014.0
20260507131611 86 169 0.9 5.2 0.00 0.00 0.00 66 1014.0
20260507130029 85 261 2.6 5.2 0.00 0.00 0.00 69 1014.0
20260507124610 84 238 1.7 3.5 0.00 0.00 0.00 70 1014.0
20260507123031 82 240 1.7 4.3 0.00 0.00 0.00 72 1013.8
20260507121630 81 234 2.6 6.1 0.00 0.00 0.00 73 1013.6
20260507120044 81 243 2.6 7.0 0.00 0.00 0.00 73 1013.4
20260507113112 79 284 1.7 6.1 0.00 0.00 0.00 75 1013.0
20260507111532 78 252 0.9 3.5 0.00 0.00 0.00 77 1013.1
20260507110130 76 288 3.5 7.8 0.00 0.00 0.00 78 1013.0
20260507104554 75 284 1.7 6.1 0.00 0.00 0.00 80 1012.9
20260507103141 74 311 0.9 3.5 0.00 0.00 0.00 81 1012.8
20260507101547 75 300 0.9 4.3 0.00 0.00 0.00 80 1012.6
20260507100136 75 268 1.7 7.8 0.00 0.00 0.00 79 1012.5
20260507094552 75 267 2.6 8.7 0.00 0.00 0.00 79 1012.3
20260507093010 75 270 1.7 8.7 0.00 0.00 0.00 80 1012.1
20260507091600 75 277 4.3 7.8 0.00 0.00 0.00 81 1012.3
20260507090014 74 260 0.9 5.2 0.00 0.00 0.00 82 1012.2
20260507084608 75 244 1.7 5.2 0.00 0.00 0.00 82 1012.3
20260507081622 76 248 0.0 0.0 0.00 0.00 0.00 81 1012.4
20260507080100 76 258 0.0 0.0 0.00 0.00 0.00 81 1012.4
20260507074504 76 246 0.0 7.8 0.00 0.00 0.00 82 1012.5
20260507073100 76 276 3.5 7.8 0.00 0.00 0.00 83 1012.4
20260507071523 76 277 4.3 7.0 0.00 0.00 0.00 84 1012.6
20260507070110 76 294 0.9 3.5 0.00 0.00 0.00 84 1012.5
20260507064550 76 249 2.6 7.0 0.00 0.00 0.00 84 1012.7
20260507063131 76 257 2.6 8.7 0.00 0.00 0.00 84 1012.7
20260507061546 76 242 6.1 8.7 0.00 0.00 0.00 84 1013.0
20260507060006 77 239 2.6 7.8 0.00 0.00 0.00 84 1013.1
20260507054602 78 250 2.6 7.0 0.00 0.00 0.00 84 1013.4
20260507053012 79 222 2.6 7.8 0.00 0.00 0.00 84 1013.6
20260507051609 80 240 2.6 4.3 0.00 0.00 0.00 84 1013.6
20260507050034 79 303 0.9 5.2 0.00 0.00 0.00 84 1013.8
20260507044612 79 315 0.9 4.3 0.00 0.00 0.00 85 1014.1
20260507043033 79 9 0.0 0.0 0.00 0.00 0.00 85 1014.2
20260507041616 79 341 0.0 0.0 0.00 0.00 0.00 85 1014.3
20260507040052 79 330 0.0 0.0 0.00 0.00 0.00 84 1014.5
20260507034531 79 302 0.0 0.0 0.00 0.00 0.00 84 1014.8
20260507033126 80 296 0.0 0.0 0.00 0.00 0.00 84 1014.7
20260507031544 80 266 0.0 0.0 0.00 0.00 0.00 83 1014.8
20260507024552 80 257 0.0 0.0 0.00 0.00 0.00 82 1014.9
20260507023012 81 184 0.0 0.0 0.00 0.00 0.00 82 1014.9
20260507021605 81 183 0.0 0.0 0.00 0.00 0.00 81 1014.8
20260507020014 82 183 0.0 0.0 0.00 0.00 0.00 80 1014.7
20260507014601 82 240 0.0 0.0 0.00 0.00 0.00 80 1014.5
20260507013018 82 263 0.0 4.3 0.00 0.00 0.00 80 1014.4
20260507011607 82 213 1.7 5.2 0.00 0.00 0.00 79 1014.3
20260507010030 82 209 2.6 6.1 0.00 0.00 0.00 79 1014.3
20260507004609 82 202 2.6 6.1 0.00 0.00 0.00 79 1014.2
20260507003029 83 226 2.6 4.3 0.00 0.00 0.00 78 1014.2
20260507001623 83 205 2.6 4.3 0.00 0.00 0.00 77 1013.9
20260507000038 83 221 2.6 4.3 0.00 0.00 0.00 77 1013.7
20260506233058 84 217 2.6 6.1 0.00 0.00 0.00 75 1013.6
20260506231513 84 178 1.7 7.0 0.00 0.00 0.00 73 1013.4
20260506230129 84 167 4.3 7.0 0.00 0.00 0.00 72 1013.2
20260506224522 85 147 4.3 7.8 0.00 0.00 0.00 72 1013.0
20260506223111 85 169 4.3 10.4 0.00 0.00 0.00 71 1012.9
20260506221529 85 155 3.5 8.7 0.00 0.00 0.00 71 1012.8
20260506220134 86 142 5.2 9.6 0.00 0.00 0.00 70 1012.6
20260506214543 86 124 3.5 12.2 0.00 0.00 0.00 70 1012.5
20260506213127 88 170 5.2 8.7 0.00 0.00 0.00 69 1012.5
20260506211541 88 152 5.2 8.7 0.00 0.00 0.00 68 1012.3
20260506210005 88 156 4.3 8.7 0.00 0.00 0.00 68 1012.4
20260506204606 88 145 5.2 10.4 0.00 0.00 0.00 67 1012.2
20260506201605 90 195 2.6 8.7 0.00 0.00 0.00 65 1012.3
20260506200021 90 112 5.2 9.6 0.00 0.00 0.00 64 1012.4
20260506194620 90 157 4.3 10.4 0.00 0.00 0.00 63 1012.5
20260506193037 89 155 5.2 10.4 0.00 0.00 0.00 62 1012.6
20260506191637 90 122 7.0 9.6 0.00 0.00 0.00 61 1012.6
20260506190044 90 114 4.3 9.6 0.00 0.00 0.00 60 1012.9
20260506184635 90 83 4.3 10.4 0.00 0.00 0.00 61 1012.9
20260506183047 90 111 5.2 9.6 0.00 0.00 0.00 60 1013.0
20260506181518 91 125 7.0 11.3 0.00 0.00 0.00 58 1013.1
20260506180116 90 139 3.5 8.7 0.00 0.00 0.00 58 1013.3